COSMOS 2242

Last updated on Wed Jul 02 2025 00:02:14 GMT+0000 (Coordinated Universal Time)

1 22626U 93024A 25182.38566738 .00001639 00000+0 14633-3 0 9998 2 22626 82.5194 146.7868 0018463 72.3482 287.9754 14.95217099742829
UTC large
Height (km)
Speed (km/s)
/
Latitude / Longitude
Inclination (degrees)
Orbital Period (minutes)
Azimuth
Elevation
Range (km)
Doppler Factor

Next 0 passes for location: London (51.5072 / 0.1276)

Sorry there are no passes over London.